Location: Moonridge Observatory
(39.2268°N, 77.7914°W)
Time: 13:17:20
(UTC-04:00)

CZ-2C R/B - Visible Passes

Search period start: 24 May 2015 00:00
Search period end: 03 June 2015 00:00
Orbit: 705 x 908 km, 98.1° (Epoch: 23 May)

Date Brightness Start Highest point End Pass type
(mag) Time Alt. Az. Time Alt. Az. Time Alt. Az.
24 May 5.7 01:38:43 10° E 01:40:55 13° ENE 01:43:26 10° NNE visible
24 May 3.1 03:18:10 43° S 03:20:00 87° WSW 03:25:38 10° NNW visible
25 May 3.7 02:53:10 33° SE 02:55:25 57° ENE 03:00:56 10° N visible
25 May 4.6 04:34:14 16° WSW 04:35:50 18° W 04:39:20 10° NW visible
26 May 4.5 02:28:09 21° ESE 02:30:55 35° ENE 02:36:01 10° N visible
26 May 4.1 04:09:13 25° WSW 04:10:51 30° W 04:15:40 10° NW visible
27 May 5.2 02:03:08 13° ESE 02:06:30 22° ENE 02:10:49 10° NNE visible
27 May 3.4 03:44:13 36° SSW 03:46:01 50° W 03:51:29 10° NNW visible
28 May 5.7 01:39:36 10° E 01:42:10 14° ENE 01:45:05 10° NNE visible
28 May 3.1 03:19:12 40° S 03:21:18 83° WSW 03:27:02 10° NNW visible
29 May 3.6 02:54:13 31° SE 02:56:43 60° ENE 03:02:21 10° N visible
29 May 4.7 04:35:17 15° WSW 04:37:09 17° W 04:40:38 10° NW visible
30 May 4.5 02:29:13 21° ESE 02:32:13 37° ENE 02:37:27 10° N visible
30 May 4.2 04:10:17 24° SW 04:12:11 29° W 04:17:00 10° NW visible
31 May 5.2 02:04:13 13° ESE 02:07:48 24° ENE 02:12:17 10° NNE visible
31 May 3.5 03:45:18 33° SSW 03:47:20 48° W 03:52:51 10° NNW visible
01 Jun 5.7 01:40:34 10° E 01:43:27 15° ENE 01:46:39 10° NNE visible
01 Jun 3.1 03:20:18 37° S 03:22:38 80° WSW 03:28:25 10° NNW visible
02 Jun 3.6 02:55:19 30° SE 02:58:02 64° ENE 03:03:45 10° N visible
02 Jun 4.8 04:36:24 14° WSW 04:38:30 17° W 04:41:55 10° NW visible
